Rochester, NH

11:00 PM EDT on July 26, 2017 (GMT -0400)
Skyhaven

Weather History for KDAW - March, 2013

Change the Weather History Date:

Tuesday, March 5, 2013

  Actual Average (KPSM) Record (KPSM)
Temperature  
Mean Temperature 36 °F -  
Max Temperature 44 °F 37 °F 64 °F (1974)
Min Temperature 28 °F 22 °F 3 °F (1987)
Degree Days  
Heating Degree Days 29    
Moisture  
Dew Point 26 °F    
Average Humidity 65    
Maximum Humidity 81    
Minimum Humidity 51    
Precipitation  
Precipitation 0.00 in - - ()
Sea Level Pressure  
Sea Level Pressure 29.93 in    
Wind  
Wind Speed 10 mph (NNW)    
Max Wind Speed 16 mph    
Max Gust Speed 17 mph    
Visibility 10 miles    
Events Rain    
Averages and records for this station are not official NWS values.
T = Trace of Precipitation, MM = Missing Value Source: NWS Daily Summary

Daily Weather History Graph

Daily Weather History Graph

Search for Another Location

Airport or City:

Trip Planner

Search our weather history database for the weather conditions in past years. The results will help you decide how hot, cold, wet, or windy it might be!

Date:

Astronomy

Mar. 05, 2013 Rise Set
Actual Time 6:12 AM EST 5:38 PM EST
Civil Twilight 5:44 AM EST 6:06 PM EST
Nautical Twilight 5:11 AM EST 6:39 PM EST
Astronomical Twilight 4:38 AM EST 7:12 PM EST
Moon 1:29 AM EST (3/5) 11:06 AM EST (3/5)
Length of Visible Light 12h 22m
Length of Day
11h 25m
Last Quarter, 41% of the Moon is Illuminated
Mar 5
Last Quarter
Mar 11
New
Mar 19
First Quarter
Mar 27
Full
Apr 3
Last Quarter

Hourly Weather History & Observations

Time (EST) Temp. Windchill Dew Point Humidity Pressure Visibility Wind Dir Wind Speed Gust Speed Precip Events Conditions
12:51 AM 30.9 °F 19.8 °F 19.9 °F 64% 29.73 in 10.0 mi NW 16.1 mph - N/A   Overcast
2:51 AM 28.9 °F 18.2 °F 19.9 °F 69% 29.76 in 10.0 mi NW 13.8 mph - N/A   Scattered Clouds
3:51 AM 30.0 °F 19.5 °F 21.0 °F 69% 29.78 in 10.0 mi NW 13.8 mph - N/A   Overcast
4:51 AM 30.0 °F 19.5 °F 21.0 °F 69% 29.81 in 10.0 mi NW 13.8 mph - N/A   Overcast
5:51 AM 30.0 °F 21.7 °F 21.0 °F 69% 29.84 in 10.0 mi NW 9.2 mph - N/A   Overcast
6:51 AM 30.0 °F 21.7 °F 21.0 °F 69% 29.86 in 10.0 mi NNW 9.2 mph - N/A   Mostly Cloudy
7:51 AM 32.0 °F 23.6 °F 21.9 °F 66% 29.89 in 10.0 mi NNW 10.4 mph - N/A   Mostly Cloudy
8:09 AM 33.8 °F 25.8 °F 23.0 °F 65% 29.89 in 10.0 mi NNW 10.4 mph - N/A   Overcast
8:51 AM 36.0 °F 28.5 °F 24.1 °F 62% 29.91 in 10.0 mi NNW 10.4 mph - N/A   Mostly Cloudy
8:59 AM 37.4 °F 29.8 °F 24.8 °F 60% 29.90 in 10.0 mi NNW 11.5 mph 17.3 mph N/A   Mostly Cloudy
9:51 AM 37.9 °F 30.9 °F 26.1 °F 62% 29.91 in 10.0 mi North 10.4 mph - N/A   Partly Cloudy
10:51 AM 42.1 °F 36.6 °F 26.1 °F 53% 29.91 in 10.0 mi North 9.2 mph - N/A   Partly Cloudy
11:51 AM 42.1 °F 37.7 °F 26.1 °F 53% 29.92 in 10.0 mi North 6.9 mph 16.1 mph N/A   Overcast
12:51 PM 43.0 °F 38.8 °F 27.0 °F 53% 29.93 in 10.0 mi NNE 6.9 mph - N/A   Mostly Cloudy
1:51 PM 42.1 °F 37.1 °F 27.0 °F 55% 29.95 in 10.0 mi North 8.1 mph 16.1 mph N/A   Overcast
2:51 PM 44.1 °F 40.1 °F 27.0 °F 51% 29.96 in 10.0 mi North 6.9 mph - N/A   Mostly Cloudy
3:51 PM 43.0 °F 39.5 °F 27.0 °F 53% 29.98 in 10.0 mi NNE 5.8 mph - N/A   Overcast
4:51 PM 41.0 °F 38.0 °F 28.0 °F 60% 30.01 in 10.0 mi NNW 4.6 mph - N/A   Partly Cloudy
5:51 PM 39.9 °F - 28.0 °F 63% 30.02 in 10.0 mi Calm Calm - N/A   Clear
6:51 PM 39.0 °F - 28.0 °F 65% 30.03 in 10.0 mi Calm Calm - N/A   Mostly Cloudy
7:51 PM 35.1 °F 31.0 °F 27.0 °F 72% 30.04 in 10.0 mi NW 4.6 mph - N/A   Mostly Cloudy
8:51 PM 37.0 °F 32.4 °F 28.9 °F 73% 30.05 in 10.0 mi North 5.8 mph - 0.00 in Rain Light Rain
9:51 PM 36.0 °F 33.3 °F 30.0 °F 79% 30.05 in 10.0 mi NNW 3.5 mph - 0.00 in   Overcast
10:04 PM 35.6 °F 32.8 °F 30.2 °F 81% 30.05 in 10.0 mi NW 3.5 mph - N/A   Overcast
10:51 PM 37.0 °F 33.3 °F 30.9 °F 79% 30.06 in 10.0 mi North 4.6 mph - N/A   Overcast
11:51 PM 37.0 °F 33.3 °F 30.9 °F 79% 30.07 in 10.0 mi NE 4.6 mph - N/A   Overcast